FW2567 Weather Reports


Display with metric or nautical units.
time (UTC)temp
F
wind
direction
speed
MPH
gust
MPH
rain 1hr
in
rain 24hr
in
rain mn
in
humidity
%
barometer
mb
20260831130028 40 152 2.0 3.0 0.00 0.00 0.00 94 1016.1
20260831124532 40 155 1.0 3.0 0.00 0.00 0.00 94 1016.1
20260831123029 41 157 1.0 2.0 0.00 0.00 0.00 94 1016.0
20260831121531 41 114 1.0 5.0 0.00 0.00 0.00 94 1016.0
20260831120106 41 127 1.0 4.0 0.00 0.00 0.00 94 1016.1
20260831113107 42 178 0.0 2.0 0.00 0.00 0.00 94 1016.1
20260831111530 42 164 0.0 3.0 0.00 0.00 0.00 94 1016.2
20260831110030 42 163 0.0 3.0 0.00 0.00 0.00 93 1016.2
20260831104531 43 136 0.0 0.0 0.00 0.00 0.00 93 1016.3
20260831101529 43 112 1.0 3.0 0.00 0.00 0.00 93 1016.3
20260831100029 43 134 1.0 4.0 0.00 0.00 0.00 93 1016.5
20260831094532 43 164 1.0 3.0 0.00 0.00 0.00 92 1016.6
20260831093030 43 157 1.0 3.0 0.00 0.00 0.00 92 1016.8
20260831091531 44 157 0.0 2.0 0.00 0.00 0.00 92 1016.9
20260831090029 44 160 1.0 6.0 0.00 0.00 0.00 92 1016.9
20260831084529 44 135 0.0 5.0 0.00 0.00 0.00 91 1017.0
20260831083032 45 135 0.0 0.0 0.00 0.00 0.00 91 1017.1
20260831081530 45 141 1.0 4.0 0.00 0.00 0.00 91 1017.3
20260831080106 45 172 2.0 8.0 0.00 0.00 0.00 90 1017.3
20260831074534 45 178 1.0 3.0 0.00 0.00 0.00 89 1017.4
20260831073030 45 157 1.0 2.0 0.00 0.00 0.00 89 1017.3
20260831071530 45 157 0.0 3.0 0.00 0.00 0.00 88 1017.5
20260831070108 46 157 0.0 0.0 0.00 0.00 0.00 87 1017.5
20260831064606 47 157 0.0 0.0 0.00 0.00 0.00 86 1017.6
20260831063030 47 157 0.0 0.0 0.00 0.00 0.00 86 1017.6
20260831061531 48 157 0.0 0.0 0.00 0.00 0.00 85 1017.7
20260831060031 49 157 1.0 3.0 0.00 0.00 0.00 83 1017.9
20260831053147 51 157 2.0 5.0 0.00 0.00 0.00 82 1018.1
20260831051607 50 148 5.0 9.0 0.00 0.00 0.00 81 1018.1
20260831050030 52 157 0.0 3.0 0.00 0.00 0.00 80 1018.2
20260831044530 53 155 2.0 6.0 0.00 0.00 0.00 80 1018.2
20260831043030 53 156 4.0 7.0 0.00 0.00 0.00 79 1018.3
20260831040031 54 123 2.0 4.0 0.00 0.00 0.00 74 1018.2
20260831034605 56 158 1.0 3.0 0.00 0.00 0.00 70 1018.1
20260831033032 59 212 2.0 4.0 0.00 0.00 0.00 63 1018.0
20260831031532 62 267 3.0 6.0 0.00 0.00 0.00 57 1017.9
20260831030029 63 278 3.0 9.0 0.00 0.00 0.00 55 1017.9
20260831023032 65 269 4.0 8.0 0.00 0.00 0.00 53 1017.8
20260831021608 65 269 5.0 10.0 0.00 0.00 0.00 51 1017.9
20260831020033 66 269 5.0 13.0 0.00 0.00 0.00 50 1017.8
20260831014529 67 259 5.0 9.0 0.00 0.00 0.00 48 1017.8
20260831013030 68 255 6.0 11.0 0.00 0.00 0.00 47 1017.9
20260831011647 71 261 5.0 12.0 0.00 0.00 0.00 44 1017.9
20260831004531 73 271 5.0 12.0 0.00 0.00 0.00 40 1017.9
20260831003029 74 261 5.0 12.0 0.00 0.00 0.00 39 1017.9
20260831001529 75 265 5.0 11.0 0.00 0.00 0.00 38 1017.9
20260831000032 76 318 3.0 14.0 0.00 0.00 0.00 37 1017.9
20260830234532 75 321 2.0 8.0 0.00 0.00 0.00 37 1017.9
20260830231529 75 284 5.0 13.0 0.00 0.00 0.00 38 1018.0
20260830230029 75 292 6.0 13.0 0.00 0.00 0.00 38 1018.1
20260830224532 74 291 4.0 13.0 0.00 0.00 0.00 39 1018.3
20260830221531 73 294 6.0 14.0 0.00 0.00 0.00 41 1018.8
20260830220031 71 300 6.0 15.0 0.00 0.00 0.00 43 1019.2
20260830210030 70 294 5.0 11.0 0.00 0.00 0.00 47 1019.4
20260830204534 70 333 3.0 8.0 0.00 0.00 0.00 49 1019.6
20260830203030 69 29 5.0 11.0 0.00 0.00 0.00 50 1019.8
20260830201532 70 49 5.0 12.0 0.00 0.00 0.00 49 1019.8
20260830193031 70 57 4.0 7.0 0.00 0.00 0.00 47 1020.3
20260830191529 70 21 4.0 8.0 0.00 0.00 0.00 46 1020.4
20260830190030 70 18 4.0 8.0 0.00 0.00 0.00 44 1020.5
20260830184530 69 37 2.0 5.0 0.00 0.00 0.00 46 1020.7
20260830183031 68 35 2.0 6.0 0.00 0.00 0.00 48 1020.9
20260830181529 67 57 2.0 6.0 0.00 0.00 0.00 50 1021.0
20260830180106 67 46 2.0 6.0 0.00 0.00 0.00 50 1021.0
20260830174645 66 19 2.0 6.0 0.00 0.00 0.00 51 1021.1
20260830173031 66 44 2.0 5.0 0.00 0.00 0.00 52 1021.1
20260830171528 65 111 0.0 4.0 0.00 0.00 0.00 55 1021.2
20260830170029 65 75 2.0 6.0 0.00 0.00 0.00 56 1021.4
20260830164533 64 98 1.0 5.0 0.00 0.00 0.00 60 1021.6
20260830163106 62 116 1.0 4.0 0.00 0.00 0.00 62 1021.8
20260830161530 61 133 1.0 5.0 0.00 0.00 0.00 67 1021.9
20260830154533 56 212 0.0 3.0 0.00 0.00 0.00 81 1022.2
20260830151604 52 129 2.0 5.0 0.00 0.00 0.00 88 1022.2
20260830150029 48 267 0.0 3.0 0.00 0.00 0.00 92 1022.1
20260830144529 45 264 0.0 4.0 0.00 0.00 0.00 93 1022.1
20260830143031 40 220 1.0 5.0 0.00 0.00 0.00 93 1022.0
20260830140031 39 265 1.0 3.0 0.00 0.00 0.00 93 1021.5
20260830134529 39 260 0.0 3.0 0.00 0.00 0.00 92 1021.5
20260830133105 39 218 1.0 3.0 0.00 0.00 0.00 92 1021.4
20260830131531 40 255 0.0 3.0 0.00 0.00 0.00 91 1021.2